This demonstration page uses our WeatherBlox Daily Observations layout. Learn more.

Left ArrowRight Arrow

Hourly Observations for May 13, 2020

Temp ( °F °C ) Dew Point ( °F °C ) Humidity (%) Winds ( mph kmh ) Pressure ( in mb ) Visibility ( mi km ) Precip ( " mm )
12:54 am 00:54 Cloudy 51 10.6 38 3.3 61 61 S 9 15 30.06 1018 10 16.0934 0 0
1:46 am 01:46 Cloudy 50 10 39 3.9 66 66 SSE 10 17 30.08 1019 10 16.0934 0 0
1:54 am 01:54 Cloudy 50 10 39 3.9 66 66 SSE 12 19 30.06 1018 10 16.0934 0 0
2:27 am 02:27 Cloudy 51 10.6 41 5 69 69 SSE 9 15 30.06 1018 10 16.0934 0 0
2:54 am 02:54 Cloudy 50 10 41 5 71 71 SSE 7 11 30.04 1017 10 16.0934 0 0
3:29 am 03:29 Cloudy 51 10.6 42 5.6 71 71 SSE 6 9 30.05 1018 10 16.0934 0 0
3:47 am 03:47 Cloudy 51 10.6 41 5 69 69 SE 8 13 30.05 1018 10 16.0934 0 0
3:54 am 03:54 Cloudy 51 10.6 41 5 69 69 SE 9 15 30.03 1017 10 16.0934 0 0
4:09 am 04:09 Cloudy 51 10.6 42 5.6 71 71 SE 9 15 30.03 1017 10 16.0934 0 0
4:54 am 04:54 Cloudy 50 10 42 5.6 74 74 SE 9 15 30 1016 10 16.0934 0 0
5:20 am 05:20 Cloudy 50 10 43 6.1 77 77 SE 9 15 30.01 1016 10 16.0934 0 0
5:54 am 05:54 Cloudy 50 10 43 6.1 77 77 SSE 10 17 30.01 1016 10 16.0934 0 0
6:54 am 06:54 Cloudy 50 10 44 6.7 80 80 SE 12 19 30.01 1016 10 16.0934 0 0
7:54 am 07:54 Cloudy 50 10 44 6.7 80 80 SE 13 20 29.99 1016 10 16.0934 0 0
8:54 am 08:54 Cloudy 50 10 44 6.7 80 80 SE 10 17 29.98 1015 10 16.0934 0 0
9:25 am 09:25 Mostly Sunny 50 10 44 6.7 80 80 undefined N/A 29.99 1016 N/A 0 0
9:54 am 09:54 Cloudy 51 10.6 45 7.2 80 80 SE 12 19 29.97 1015 10 16.0934 0 0
10:54 am 10:54 Cloudy with Light Rain 50 10 46 7.8 86 86 SE 15 24 29.96 1015 2.5 4.02335 0.001 0.001
11:14 am 11:14 Cloudy with Light Rain 50 10 46 7.8 86 86 SSE 15 24 29.96 1015 4 6.43736 0.001 0.001
11:54 am 11:54 Cloudy with Light Rain 50 10 47 8.3 89 89 SSE 13 20 29.94 1014 4 6.43736 0.001 0.001
12:39 pm 12:39 Cloudy with Mist and Fog 51 10.6 48 8.9 89 89 SSE 12 19 29.92 1013 4 6.43736 0.01 0.254
12:54 pm 12:54 Cloudy with Mist and Fog 52 11.1 49 9.4 89 89 SSE 13 20 29.91 1013 2 3.21868 0.01 0.254
1:05 pm 13:05 Cloudy with Light Rain 52 11.1 49 9.4 89 89 SSE 12 19 29.91 1013 1.5 2.41401 0.001 0.001
1:26 pm 13:26 Cloudy with Light Rain 52 11.1 49 9.4 89 89 SSE 17 28 29.91 1013 3 4.82802 0.01 0.254
1:37 pm 13:37 Cloudy with Light Rain 52 11.1 49 9.4 89 89 SSE 13 20 29.91 1013 1.75 2.816345 0.01 0.254
1:54 pm 13:54 Cloudy with Light Rain 52 11.1 50 10 93 93 SSE 12 19 29.88 1012 1.75 2.816345 0.02 0.508
2:04 pm 14:04 Cloudy with Mist and Fog 53 11.7 50 10 89 89 SSE 13 20 29.88 1012 3 4.82802 0.01 0.254
2:54 pm 14:54 Cloudy 53 11.7 50 10 89 89 SE 9 15 29.86 1011 9 14.48406 0.01 0.254
3:54 pm 15:54 Cloudy 54 12.2 51 10.6 90 90 SE 12 19 29.83 1010 7 11.26538 0 0
4:30 pm 16:30 Cloudy with Light Rain 54 12.2 51 10.6 90 90 SE 12 19 29.83 1010 1.75 2.816345 0.001 0.001
4:54 pm 16:54 Cloudy with Light Rain 54 12.2 52 11.1 93 93 SE 8 13 29.82 1010 1.25 2.011675 0.01 0.254
5:06 pm 17:06 Cloudy with Light Rain 54 12.2 52 11.1 93 93 SE 12 19 29.81 1010 1.75 2.816345 0.01 0.254
5:11 pm 17:11 Cloudy with Light Rain 54 12.2 52 11.1 93 93 SE 12 19 29.81 1010 2 3.21868 0.01 0.254
5:28 pm 17:28 Cloudy with Light Rain 54 12.2 52 11.1 93 93 SE 10 17 29.81 1010 2 3.21868 0.01 0.254
5:54 pm 17:54 Cloudy with Light Rain 54 12.2 52 11.1 93 93 ESE 7 11 29.81 1010 2 3.21868 0.01 0.254
6:06 pm 18:06 Cloudy with Light Rain 54 12.2 52 11.1 93 93 ESE 6 9 29.81 1010 1.25 2.011675 0.01 0.254
6:54 pm 18:54 Cloudy with Light Rain 54 12.2 52 11.1 93 93 Calm 29.8 1009 1.25 2.011675 0.03 0.762
7:54 pm 19:54 Cloudy with Light Rain 55 12.8 53 11.7 93 93 NE 3 6 29.8 1009 1.25 2.011675 0.03 0.762
8:12 pm 20:12 Cloudy with Light Rain 54 12.2 52 11.1 93 93 NE 5 7 29.8 1009 1.5 2.41401 0.001 0.001
8:42 pm 20:42 Cloudy with Light Rain 54 12.2 53 11.7 97 97 NNE 3 6 29.81 1010 2 3.21868 0.02 0.508
8:54 pm 20:54 Cloudy with Light Rain 55 12.8 53 11.7 93 93 NE 5 7 29.8 1009 2.5 4.02335 0.03 0.762
9:22 pm 21:22 Cloudy with Light Rain 55 12.8 53 11.7 93 93 NNE 3 6 29.81 1009 3 4.82802 0.02 0.508
9:54 pm 21:54 Cloudy with Mist and Fog 55 12.8 53 11.7 93 93 NNE 5 7 29.81 1010 3 4.82802 0.02 0.508
10:54 pm 22:54 Cloudy with Light Rain 55 12.8 53 11.7 93 93 N 6 9 29.83 1010 4 6.43736 0.01 0.254
11:07 pm 23:07 Cloudy with Light Rain 55 12.8 53 11.7 93 93 N 6 9 29.84 1010 2.5 4.02335 0.001 0.001
11:15 pm 23:15 Cloudy with Mist and Fog 55 12.8 53 11.7 93 93 NNE 5 7 29.83 1010 3 4.82802 0.001 0.001
11:54 pm 23:54 Cloudy with Mist and Fog 55 12.8 53 11.7 93 93 N 3 6 29.83 1010 4 6.43736 0.001 0.001

Powered by AerisWeather